Location: Arcusa
(42.3167°N, 0.0833°W)
Time: 09:47:20
(UTC+00:00)

Genesis I - Pass Details

Date: 25 January 2020
Orbit: 496 x 528 km, 64.5° (Epoch: 19 February)

Event Time Altitude Azimuth Distance (km) Brightness Sun altitude
Exits shadow 05:31:07 52° 334° (NNW) 637 3.3 -20.2°
Maximum altitude 05:31:59 84° 56° (NE) 513 3.1 -20.1°
Drops below altitude 10° 05:35:48 10° 145° (SE) 1,702 6.4 -19.4°
Sets 05:37:56 0° 146° (SE) 2,577 7.4 -19.0°
